Terminal Aerodrome Forecast
Issued by NWS Dodge City, KS

Current Version | Previous Version | Text Only | Print | Product List | Glossary On
Versions: 1 2 3 4 5 6 7 8 9 10 11 12 13 14 15 16 17 18 19 20 21 22 23 24 25 26 27 28 29 30 31 32 33 34 35 36 37 38 39 40 41 42 43 44 45 46 47 48 49 50
000
FTUS43 KDDC 191249 AAB
TAFDDC
TAF AMD
KDDC 191249Z 1913/2012 35015KT P6SM BKN025
     FM191800 34027G37KT P6SM -SHRA BKN025
     FM192000 35025G35KT P6SM SCT060
     FM200100 29010KT P6SM SKC=

USA.gov is the U.S. government's official web portal to all federal, state and local government web resources and services.